Lumberton, NJ

12:17 PM EDT on July 23, 2016 (GMT -0400)
South Jersey Regional

Weather History for KVAY - December, 2012

Change the Weather History Date:

Thursday, December 6, 2012

  Actual Average (KWRI) Record (KWRI)
Temperature  
Mean Temperature 34 °F -  
Max Temperature 41 °F 47 °F 73 °F (2001)
Min Temperature 27 °F 30 °F 15 °F (2002)
Degree Days  
Heating Degree Days 31    
Moisture  
Dew Point 19 °F    
Average Humidity 59    
Maximum Humidity 85    
Minimum Humidity 41    
Precipitation  
Precipitation 0.00 in - - ()
Sea Level Pressure  
Sea Level Pressure 30.32 in    
Wind  
Wind Speed 4 mph (NNW)    
Max Wind Speed 9 mph    
Max Gust Speed 18 mph    
Visibility 10 miles    
Events      
Averages and records for this station are not official NWS values.
T = Trace of Precipitation, MM = Missing Value Source: NWS Daily Summary

Daily Weather History Graph

Daily Weather History Graph

Search for Another Location

Airport or City:

Trip Planner

Search our weather history database for the weather conditions in past years. The results will help you decide how hot, cold, wet, or windy it might be!

Date:

Astronomy

Dec. 06, 2012 Rise Set
Actual Time 7:07 AM EST 4:34 PM EST
Civil Twilight 6:36 AM EST 5:04 PM EST
Nautical Twilight 6:03 AM EST 5:38 PM EST
Astronomical Twilight 5:30 AM EST 6:10 PM EST
Moon No Moon Rise 11:58 AM EST (12/6)
Length of Visible Light 10h 27m
Length of Day
9h 27m
Waning Gibbous, 49% of the Moon is Illuminated
Dec 6
Waning Gibbous
Dec 13
New
Dec 20
First Quarter
Dec 28
Full
Jan 4
Last Quarter

Hourly Weather History & Observations

Time (EST) Temp. Windchill Dew Point Humidity Pressure Visibility Wind Dir Wind Speed Gust Speed Precip Events Conditions
12:54 AM 34.0 °F 26.6 °F 17.1 °F 50% 30.28 in 10.0 mi NNW 9.2 mph 18.4 mph N/A   Clear
1:54 AM 33.1 °F 30.0 °F 17.1 °F 52% 30.30 in 10.0 mi NNW 3.5 mph - N/A   Clear
2:54 AM 32.0 °F 28.7 °F 17.1 °F 54% 30.31 in 10.0 mi WNW 3.5 mph - N/A   Clear
3:54 AM 30.9 °F 23.5 °F 18.0 °F 59% 30.31 in 10.0 mi NW 8.1 mph - N/A   Clear
4:54 AM 30.0 °F 24.1 °F 18.0 °F 61% 30.32 in 10.0 mi NW 5.8 mph - N/A   Clear
5:54 AM 28.9 °F 23.9 °F 19.0 °F 67% 30.33 in 10.0 mi NNW 4.6 mph - N/A   Clear
6:54 AM 28.0 °F - 18.0 °F 66% 30.36 in 10.0 mi Calm Calm - N/A   Clear
7:54 AM 30.0 °F 26.5 °F 19.9 °F 66% 30.37 in 10.0 mi NW 3.5 mph - N/A   Clear
8:54 AM 33.1 °F 26.1 °F 19.9 °F 59% 30.38 in 10.0 mi NNE 8.1 mph - N/A   Clear
9:54 AM 36.0 °F 31.1 °F 19.0 °F 50% 30.40 in 10.0 mi NNE 5.8 mph - N/A   Clear
10:54 AM 37.0 °F 31.6 °F 18.0 °F 46% 30.37 in 10.0 mi ENE 6.9 mph - N/A   Clear
11:54 AM 37.0 °F 32.4 °F 18.0 °F 46% 30.35 in 10.0 mi East 5.8 mph - N/A   Clear
12:54 PM 37.9 °F - 18.0 °F 45% 30.32 in 10.0 mi Calm Calm - N/A   Clear
1:54 PM 41.0 °F - 19.0 °F 41% 30.30 in 10.0 mi Calm Calm - N/A   Clear
2:54 PM 41.0 °F - 19.0 °F 41% 30.29 in 10.0 mi Calm Calm - N/A   Clear
3:54 PM 39.9 °F - 19.0 °F 43% 30.30 in 10.0 mi Calm Calm - N/A   Clear
4:54 PM 35.1 °F - 19.9 °F 54% 30.30 in 10.0 mi Calm Calm - N/A   Clear
5:54 PM 32.0 °F - 19.9 °F 61% 30.30 in 10.0 mi Calm Calm - N/A   Clear
6:54 PM 30.9 °F - 19.9 °F 64% 30.31 in 10.0 mi Calm Calm - N/A   Clear
7:54 PM 30.9 °F - 21.0 °F 67% 30.32 in 10.0 mi Calm Calm - N/A   Clear
8:54 PM 28.9 °F - 21.9 °F 75% 30.32 in 10.0 mi Calm Calm - N/A   Clear
9:54 PM 27.0 °F - 21.9 °F 81% 30.31 in 10.0 mi Calm Calm - N/A   Clear
10:54 PM 27.0 °F - 23.0 °F 85% 30.31 in 10.0 mi Calm Calm - N/A   Clear
11:54 PM 27.0 °F - 21.9 °F 81% 30.30 in 10.0 mi Calm Calm - N/A   Clear